Location: Erdweis
(48.5167°N, 15.3500°E)
Time: 14:31:41
(UTC+00:00)

USA 234 - Pass Details

Date: 18 January 2021
Orbit: 1100 x 1107 km, 123.0° (Epoch: 01 March)

Event Time Altitude Azimuth Distance (km) Brightness Sun altitude
Exits shadow 20:09:16 28° 283° (WNW) 1,935 4.9 -44.4°
Drops below altitude 10° 20:12:23 10° 299° (WNW) 2,966 6.1 -44.9°
Sets 20:14:59 0° 305° (NW) 3,927 6.9 -45.3°
